Location: Newark
(49.8348°N, 24.0280°E)
Time: 00:32:50
(UTC+00:00)

Explorer 7 - Pass Details

Date: 24 January 2020
Orbit: 485 x 679 km, 50.3° (Epoch: 24 February)

Event Time Altitude Azimuth Distance (km) Brightness Sun altitude
Rises 01:49:34 0° 283° (WNW) 2,563 - -41.1°
Reaches altitude 10° 01:51:43 10° 281° (W) 1,693 - -40.7°
Maximum altitude 01:55:31 72° 197° (SSW) 538 - -40.2°
Drops below altitude 10° 01:59:29 10° 113° (ESE) 1,765 - -39.6°
Exits shadow 02:01:09 - 112° (ESE) 2,432 10.7 -39.3°
Sets 02:01:46 0° 112° (ESE) 2,685 10.9 -39.2°
